Precipitable_Water
0.25 0.20 0.20 0.21 0.23 0.23 0.27 0.22 0.21 0.22 0.23 0.23 0.23 0.20 0.21 0.22 0.22 0.23 0.23 0.22 0.22 0.21 0.21 0.20 0.21 0.20 0.21 0.23 0.47 0.54 0.59 0.56 0.51 0.55 0.66 0.72 0.77 0.81 0.82 0.80 0.82 0.82 0.89 0.98 1.01 0.99 0.96 0.99 0.96 0.95 0.93 0.94 0.94 0.94 0.91 0.92 0.93 0.99 0.97 0.97 0.92 1.00 1.05 1.02 1.04 1.04 1.04 1.03 1.04 1.08 1.09 1.09 1.16 1.18 1.23 1.27 1.35 1.40 1.40 1.35 1.22 1.17 1.23 1.34 1.39 1.43
0.21 0.20 0.22 0.24 0.26 0.26 0.26 0.25 0.23 0.23 0.22 0.22 0.21 0.19 0.19 0.20 0.19 0.21 0.21 0.23 0.24 0.21 0.21 0.22 0.21 0.20 0.20 0.21 0.24 0.62 0.54 0.52 0.49 0.47 0.55 0.65 0.76 0.83 0.81 0.83 0.83 0.84 0.95 0.95 0.92 0.92 0.99 0.94 0.90 0.91 0.90 0.89 0.80 0.82 0.84 0.81 0.82 0.85 0.91 0.92 0.92 0.97 0.98 0.97 0.98 0.98 0.98 0.99 1.00 1.00 1.02 1.07 1.12 1.13 1.14 1.17 1.25 1.31 1.40 1.36 1.30 1.26 1.28 1.23 1.30 1.36
0.25 0.27 0.31 0.32 0.29 0.26 0.27 0.25 0.23 0.21 0.20 0.19 0.18 0.18 0.17 0.18 0.19 0.20 0.21 0.23 0.23 0.22 0.22 0.24 0.23 0.23 0.22 0.21 0.21 0.35 0.43 0.54 0.53 0.49 0.55 0.64 0.74 0.76 0.79 0.83 0.83 0.86 0.88 0.89 0.89 0.89 0.91 0.87 0.87 0.88 0.91 0.90 0.84 0.83 0.80 0.77 0.79 0.81 0.83 0.85 0.84 0.88 0.89 0.93 0.99 1.03 0.98 1.03 1.08 1.06 1.08 1.09 1.11 1.17 1.17 1.16 1.18 1.25 1.29 1.32 1.37 1.37 1.38 1.39 1.36 1.36
0.29 0.32 0.34 0.30 0.28 0.25 0.22 0.21 0.20 0.19 0.19 0.17 0.18 0.18 0.18 0.19 0.18 0.18 0.22 0.22 0.23 0.24 0.22 0.24 0.23 0.21 0.23 0.22 0.21 0.21 0.43 0.49 0.58 0.60 0.64 0.74 0.72 0.76 0.79 0.77 0.77 0.82 0.84 0.85 0.86 0.90 0.86 0.83 0.82 0.83 0.82 0.81 0.82 0.80 0.80 0.81 0.80 0.79 0.80 0.82 0.84 0.86 0.87 0.88 0.93 0.94 0.99 1.04 1.05 1.08 1.09 1.12 1.11 1.08 1.13 1.19 1.24 1.26 1.28 1.28 1.34 1.39 1.44 1.45 1.40 1.37
0.26 0.35 0.37 0.29 0.21 0.19 0.19 0.20 0.21 0.19 0.19 0.20 0.18 0.18 0.19 0.20 0.20 0.21 0.23 0.25 0.25 0.26 0.28 0.28 0.26 0.25 0.24 0.21 0.19 0.20 0.40 0.57 0.67 0.71 0.71 0.72 0.78 0.85 0.88 0.89 0.84 0.84 0.89 0.86 0.92 0.92 0.81 0.78 0.77 0.78 0.82 0.84 0.80 0.79 0.78 0.79 0.80 0.79 0.77 0.77 0.79 0.81 0.84 0.88 0.89 0.91 0.93 0.95 0.96 1.00 1.07 1.07 1.07 1.12 1.11 1.07 1.11 1.18 1.21 1.20 1.24 1.30 1.42 1.48 1.45 1.40
0.24 0.31 0.33 0.26 0.23 0.22 0.18 0.22 0.24 0.21 0.18 0.19 0.21 0.21 0.23 0.24 0.24 0.24 0.26 0.26 0.25 0.23 0.29 0.30 0.23 0.21 0.23 0.22 0.21 0.19 0.59 0.47 0.64 0.66 0.67 0.70 0.76 0.82 0.81 0.85 0.88 0.89 0.92 0.90 0.98 0.93 0.82 0.80 0.78 0.78 0.79 0.82 0.80 0.78 0.81 0.83 0.81 0.81 0.78 0.81 0.83 0.79 0.79 0.80 0.86 0.90 0.92 0.88 0.87 0.87 0.86 0.87 0.92 0.90 0.91 0.89 0.93 1.00 1.07 1.11 1.24 1.27 1.31 1.41 1.47 1.47
0.28 0.36 0.34 0.23 0.24 0.25 0.25 0.21 0.23 0.23 0.20 0.21 0.23 0.25 0.24 0.23 0.23 0.23 0.24 0.26 0.22 0.20 0.26 0.30 0.22 0.20 0.26 0.24 0.22 0.22 0.25 0.64 0.57 0.62 0.70 0.74 0.81 0.82 0.79 0.78 0.81 0.90 0.96 1.02 1.07 0.93 0.81 0.80 0.73 0.73 0.75 0.77 0.76 0.76 0.80 0.83 0.85 0.82 0.84 0.82 0.85 0.84 0.84 0.83 0.82 0.79 0.83 0.83 0.82 0.82 0.83 0.84 0.86 0.86 0.96 1.04 1.07 1.07 1.13 1.24 1.24 1.19 1.25 1.35 1.43 1.46
0.26 0.31 0.29 0.27 0.24 0.16 0.17 0.18 0.23 0.24 0.25 0.25 0.24 0.20 0.24 0.22 0.23 0.22 0.22 0.22 0.22 0.24 0.25 0.26 0.26 0.20 0.21 0.26 0.29 0.29 0.27 0.43 0.63 0.64 0.65 0.67 0.77 0.87 0.87 0.83 0.78 0.87 0.94 0.94 0.94 0.91 0.84 0.76 0.73 0.68 0.76 0.80 0.76 0.76 0.79 0.76 0.79 0.78 0.78 0.81 0.80 0.83 0.86 0.85 0.86 0.84 0.85 0.78 0.80 0.79 0.78 0.80 0.82 0.84 0.88 0.98 1.05 1.14 1.15 1.10 1.18 1.15 1.15 1.21 1.30 1.39
0.31 0.29 0.28 0.26 0.24 0.17 0.19 0.24 0.28 0.26 0.25 0.25 0.28 0.27 0.28 0.23 0.22 0.24 0.24 0.22 0.22 0.21 0.19 0.21 0.25 0.21 0.19 0.23 0.28 0.32 0.30 0.33 0.56 0.63 0.64 0.67 0.80 0.87 0.90 0.89 0.87 0.90 0.95 0.92 0.87 0.82 0.80 0.80 0.77 0.79 0.76 0.79 0.78 0.80 0.77 0.78 0.79 0.78 0.80 0.83 0.79 0.85 0.81 0.82 0.85 0.86 0.85 0.84 0.83 0.82 0.80 0.77 0.83 0.86 0.89 0.97 1.03 1.08 1.15 1.13 1.21 1.16 1.13 1.14 1.21 1.31
0.31 0.30 0.33 0.28 0.24 0.26 0.26 0.29 0.29 0.31 0.28 0.23 0.28 0.28 0.26 0.25 0.23 0.22 0.21 0.20 0.20 0.20 0.18 0.20 0.25 0.21 0.20 0.25 0.27 0.31 0.31 0.43 0.55 0.60 0.64 0.66 0.72 0.75 0.80 0.89 0.90 0.92 0.99 0.94 0.89 0.81 0.79 0.80 0.84 0.84 0.83 0.78 0.75 0.78 0.80 0.79 0.80 0.80 0.80 0.80 0.83 0.85 0.83 0.88 0.86 0.84 0.86 0.86 0.84 0.78 0.79 0.77 0.80 0.86 0.91 0.96 0.99 1.03 1.09 1.06 1.10 1.17 1.15 1.14 1.18 1.22
0.28 0.33 0.35 0.30 0.25 0.25 0.26 0.27 0.28 0.30 0.28 0.30 0.27 0.22 0.21 0.20 0.21 0.22 0.23 0.23 0.22 0.20 0.20 0.23 0.24 0.25 0.20 0.25 0.27 0.27 0.29 0.43 0.54 0.57 0.65 0.65 0.67 0.72 0.77 0.80 0.85 0.84 0.87 0.89 0.86 0.80 0.79 0.84 0.83 0.85 0.83 0.81 0.78 0.78 0.78 0.75 0.78 0.79 0.81 0.79 0.82 0.84 0.87 0.88 0.85 0.87 0.84 0.85 0.85 0.81 0.81 0.80 0.80 0.85 0.89 0.93 0.97 1.01 1.02 1.01 1.05 1.11 1.13 1.15 1.12 1.15
0.34 0.33 0.35 0.37 0.34 0.30 0.24 0.22 0.24 0.25 0.24 0.22 0.20 0.21 0.21 0.21 0.25 0.23 0.24 0.25 0.19 0.18 0.23 0.26 0.27 0.27 0.19 0.21 0.28 0.32 0.34 0.38 0.43 0.55 0.54 0.59 0.60 0.63 0.71 0.75 0.77 0.76 0.81 0.83 0.79 0.79 0.78 0.80 0.85 0.90 0.85 0.85 0.83 0.79 0.78 0.79 0.79 0.78 0.82 0.79 0.82 0.80 0.83 0.85 0.84 0.83 0.84 0.85 0.86 0.85 0.85 0.84 0.85 0.87 0.88 0.90 0.91 0.97 0.97 0.99 1.00 1.06 1.11 1.15 1.16 1.13
0.35 0.34 0.35 0.31 0.39 0.34 0.32 0.25 0.24 0.25 0.25 0.23 0.26 0.27 0.21 0.19 0.20 0.18 0.23 0.21 0.21 0.20 0.28 0.32 0.32 0.25 0.24 0.26 0.28 0.33 0.39 0.39 0.40 0.48 0.44 0.47 0.57 0.61 0.66 0.69 0.69 0.71 0.76 0.77 0.77 0.81 0.80 0.81 0.86 0.87 0.87 0.88 0.85 0.81 0.82 0.81 0.81 0.83 0.82 0.82 0.79 0.82 0.86 0.80 0.84 0.79 0.79 0.83 0.83 0.84 0.85 0.84 0.87 0.88 0.91 0.92 0.92 0.96 0.97 0.98 0.98 1.01 1.06 1.14 1.14 1.15
0.32 0.35 0.35 0.35 0.36 0.39 0.36 0.25 0.25 0.24 0.27 0.28 0.27 0.27 0.24 0.20 0.19 0.18 0.20 0.23 0.24 0.28 0.32 0.30 0.35 0.26 0.26 0.29 0.41 0.43 0.40 0.41 0.41 0.48 0.52 0.52 0.51 0.55 0.63 0.66 0.69 0.70 0.70 0.70 0.73 0.78 0.79 0.84 0.86 0.90 0.91 0.92 0.89 0.88 0.87 0.84 0.85 0.83 0.83 0.83 0.79 0.84 0.85 0.82 0.80 0.79 0.81 0.81 0.82 0.84 0.84 0.84 0.85 0.86 0.90 0.91 0.91 0.96 0.99 1.00 0.99 1.01 1.07 1.11 1.12 1.16
0.24 0.26 0.27 0.28 0.28 0.41 0.34 0.27 0.24 0.25 0.29 0.29 0.31 0.27 0.25 0.24 0.21 0.17 0.20 0.20 0.22 0.23 0.24 0.31 0.32 0.25 0.22 0.31 0.33 0.38 0.44 0.46 0.53 0.52 0.52 0.58 0.57 0.56 0.59 0.60 0.60 0.63 0.64 0.65 0.69 0.74 0.73 0.73 0.77 0.81 0.89 0.95 0.97 0.93 0.92 0.90 0.88 0.85 0.83 0.84 0.82 0.82 0.85 0.84 0.83 0.83 0.83 0.83 0.84 0.86 0.87 0.87 0.87 0.88 0.90 0.94 1.00 1.03 1.03 1.04 1.01 1.02 1.05 1.07 1.11 1.13
0.28 0.27 0.32 0.37 0.38 0.42 0.37 0.37 0.34 0.30 0.24 0.25 0.26 0.29 0.26 0.26 0.35 0.26 0.27 0.24 0.24 0.24 0.22 0.25 0.26 0.28 0.27 0.43 0.46 0.46 0.47 0.43 0.48 0.49 0.50 0.50 0.56 0.58 0.58 0.58 0.59 0.63 0.69 0.77 0.77 0.76 0.76 0.78 0.78 0.82 0.90 0.96 1.02 1.03 1.00 0.95 0.91 0.88 0.86 0.84 0.85 0.83 0.86 0.87 0.85 0.84 0.83 0.84 0.86 0.86 0.86 0.86 0.87 0.89 0.91 0.94 1.01 1.07 1.09 1.08 1.08 1.05 1.06 1.09 1.12 1.15
0.28 0.25 0.37 0.38 0.40 0.38 0.36 0.35 0.31 0.33 0.18 0.35 0.33 0.26 0.28 0.37 0.33 0.28 0.28 0.29 0.27 0.25 0.21 0.27 0.25 0.26 0.32 0.38 0.40 0.42 0.42 0.41 0.41 0.45 0.47 0.47 0.52 0.53 0.51 0.57 0.65 0.66 0.70 0.76 0.78 0.78 0.82 0.85 0.81 0.84 0.90 0.97 1.04 1.06 1.02 0.98 0.94 0.92 0.88 0.87 0.86 0.85 0.86 0.86 0.87 0.86 0.86 0.85 0.83 0.84 0.84 0.83 0.82 0.84 0.85 0.88 0.94 1.00 1.10 1.12 1.13 1.14 1.10 1.11 1.12 1.18
0.25 0.25 0.35 0.34 0.33 0.39 0.40 0.37 0.34 0.34 0.31 0.25 0.20 0.26 0.34 0.37 0.35 0.30 0.22 0.23 0.20 0.17 0.19 0.25 0.22 0.25 0.27 0.23 0.38 0.43 0.43 0.45 0.44 0.44 0.46 0.47 0.46 0.48 0.49 0.48 0.54 0.69 0.75 0.73 0.74 0.77 0.82 0.86 0.87 0.91 0.95 0.96 0.97 1.04 1.03 1.02 1.01 0.95 0.94 0.90 0.87 0.86 0.84 0.86 0.86 0.85 0.85 0.83 0.82 0.82 0.81 0.81 0.83 0.84 0.85 0.88 0.90 0.95 0.99 1.04 1.07 1.08 1.08 1.13 1.19 1.18
0.34 0.26 0.30 0.33 0.33 0.33 0.38 0.36 0.30 0.30 0.30 0.25 0.23 0.34 0.26 0.25 0.23 0.31 0.27 0.18 0.17 0.18 0.20 0.21 0.22 0.23 0.29 0.33 0.38 0.35 0.40 0.40 0.42 0.45 0.48 0.48 0.48 0.49 0.53 0.53 0.56 0.59 0.64 0.68 0.71 0.75 0.80 0.81 0.85 0.89 0.88 0.92 1.02 1.13 1.10 1.06 1.01 0.98 0.95 0.92 0.89 0.87 0.86 0.85 0.86 0.85 0.85 0.84 0.83 0.82 0.80 0.81 0.84 0.86 0.88 0.91 0.95 0.98 0.97 0.98 1.03 1.07 1.10 1.14 1.18 1.17
0.36 0.25 0.24 0.33 0.31 0.34 0.36 0.36 0.25 0.28 0.32 0.31 0.29 0.24 0.28 0.26 0.24 0.22 0.25 0.25 0.25 0.21 0.20 0.17 0.20 0.20 0.31 0.38 0.38 0.37 0.39 0.40 0.42 0.43 0.44 0.46 0.48 0.49 0.52 0.59 0.61 0.58 0.62 0.63 0.65 0.69 0.78 0.81 0.83 0.87 0.85 0.87 0.99 1.10 1.08 1.04 0.97 0.93 0.92 0.93 0.91 0.89 0.87 0.85 0.82 0.82 0.81 0.83 0.83 0.79 0.79 0.82 0.85 0.87 0.89 0.95 0.96 0.98 0.99 1.04 1.05 1.07 1.08 1.09 1.15 1.17
0.33 0.37 0.25 0.32 0.37 0.37 0.29 0.33 0.29 0.30 0.28 0.32 0.32 0.29 0.29 0.27 0.31 0.30 0.30 0.29 0.27 0.24 0.21 0.19 0.16 0.24 0.37 0.40 0.39 0.40 0.40 0.40 0.40 0.41 0.42 0.43 0.44 0.46 0.47 0.49 0.58 0.67 0.66 0.67 0.69 0.73 0.74 0.71 0.74 0.84 0.88 0.92 1.04 1.05 1.05 1.01 0.96 0.94 0.95 0.93 0.90 0.85 0.83 0.81 0.80 0.78 0.77 0.78 0.78 0.75 0.75 0.80 0.87 0.90 0.94 0.94 0.96 0.97 0.98 1.00 1.05 1.07 1.12 1.14 1.13 1.18
0.33 0.34 0.29 0.31 0.30 0.31 0.32 0.37 0.35 0.35 0.35 0.33 0.35 0.35 0.34 0.30 0.28 0.25 0.23 0.33 0.29 0.26 0.23 0.22 0.20 0.27 0.39 0.45 0.44 0.40 0.42 0.43 0.44 0.43 0.42 0.43 0.44 0.45 0.46 0.47 0.50 0.56 0.69 0.71 0.72 0.69 0.72 0.71 0.73 0.84 1.02 1.07 1.05 1.02 1.02 0.97 0.93 0.91 0.91 0.92 0.88 0.85 0.80 0.80 0.79 0.79 0.81 0.80 0.76 0.71 0.75 0.79 0.85 0.89 0.91 0.91 0.93 0.93 0.95 0.97 1.01 1.05 1.08 1.08 1.13 1.17
0.41 0.39 0.35 0.31 0.31 0.32 0.35 0.40 0.41 0.40 0.39 0.37 0.37 0.34 0.36 0.35 0.33 0.26 0.21 0.27 0.31 0.32 0.32 0.27 0.24 0.28 0.44 0.43 0.42 0.43 0.43 0.43 0.43 0.42 0.42 0.43 0.44 0.46 0.48 0.48 0.51 0.64 0.75 0.80 0.85 0.86 0.86 0.88 0.87 0.90 0.96 0.98 1.00 0.97 0.94 0.92 0.90 0.91 0.92 0.91 0.87 0.83 0.81 0.76 0.77 0.74 0.75 0.75 0.73 0.70 0.72 0.74 0.78 0.81 0.83 0.84 0.87 0.90 0.92 0.95 0.98 1.02 1.01 1.02 1.07 1.14
0.48 0.38 0.33 0.33 0.36 0.37 0.39 0.39 0.40 0.40 0.39 0.35 0.34 0.33 0.31 0.27 0.29 0.28 0.27 0.30 0.27 0.28 0.28 0.29 0.25 0.29 0.44 0.47 0.44 0.44 0.44 0.43 0.42 0.41 0.41 0.44 0.45 0.44 0.47 0.54 0.55 0.59 0.73 0.72 0.82 0.85 0.85 0.87 0.89 0.89 0.91 0.93 0.91 0.90 0.91 0.88 0.88 0.89 0.91 0.88 0.85 0.80 0.77 0.77 0.73 0.72 0.72 0.71 0.70 0.71 0.70 0.71 0.74 0.76 0.79 0.80 0.86 0.87 0.90 0.92 0.94 0.97 0.98 1.00 1.01 1.03
0.36 0.41 0.37 0.31 0.29 0.30 0.32 0.34 0.36 0.41 0.41 0.36 0.32 0.33 0.33 0.31 0.29 0.27 0.27 0.29 0.23 0.23 0.24 0.22 0.18 0.23 0.39 0.46 0.42 0.42 0.41 0.41 0.41 0.43 0.45 0.46 0.47 0.49 0.50 0.54 0.57 0.59 0.65 0.73 0.73 0.77 0.79 0.79 0.78 0.81 0.85 0.88 0.88 0.87 0.88 0.88 0.86 0.84 0.84 0.85 0.82 0.81 0.80 0.76 0.74 0.71 0.70 0.69 0.67 0.69 0.71 0.72 0.73 0.73 0.74 0.76 0.79 0.83 0.87 0.89 0.92 0.95 0.96 0.97 0.97 0.99
0.42 0.41 0.38 0.30 0.25 0.21 0.21 0.23 0.27 0.31 0.36 0.41 0.42 0.37 0.35 0.32 0.31 0.29 0.25 0.25 0.21 0.23 0.26 0.23 0.22 0.26 0.40 0.44 0.40 0.42 0.42 0.41 0.43 0.45 0.47 0.46 0.44 0.46 0.46 0.46 0.67 0.73 0.69 0.73 0.68 0.72 0.76 0.77 0.78 0.78 0.80 0.85 0.86 0.84 0.86 0.86 0.83 0.83 0.85 0.83 0.83 0.80 0.79 0.77 0.73 0.69 0.68 0.68 0.69 0.69 0.68 0.69 0.70 0.72 0.74 0.76 0.78 0.81 0.85 0.88 0.90 0.93 0.95 0.96 0.94 0.95
0.39 0.42 0.41 0.37 0.32 0.29 0.31 0.34 0.40 0.40 0.36 0.33 0.38 0.40 0.39 0.39 0.36 0.34 0.32 0.28 0.23 0.26 0.25 0.26 0.27 0.29 0.35 0.37 0.44 0.47 0.44 0.39 0.43 0.46 0.44 0.44 0.47 0.49 0.50 0.52 0.67 0.75 0.72 0.71 0.68 0.74 0.79 0.80 0.82 0.85 0.85 0.85 0.83 0.81 0.81 0.83 0.83 0.84 0.82 0.79 0.80 0.79 0.77 0.75 0.72 0.71 0.68 0.69 0.69 0.69 0.70 0.70 0.71 0.74 0.76 0.78 0.80 0.84 0.87 0.89 0.91 0.93 0.93 0.95 0.93 0.91
0.41 0.36 0.37 0.38 0.37 0.37 0.38 0.39 0.44 0.45 0.39 0.40 0.39 0.39 0.41 0.39 0.37 0.34 0.30 0.27 0.32 0.28 0.21 0.26 0.28 0.26 0.29 0.35 0.39 0.38 0.41 0.41 0.43 0.46 0.45 0.45 0.46 0.50 0.53 0.52 0.57 0.67 0.71 0.72 0.70 0.72 0.73 0.76 0.79 0.82 0.82 0.80 0.80 0.82 0.84 0.84 0.83 0.83 0.79 0.75 0.77 0.79 0.77 0.74 0.70 0.68 0.68 0.69 0.69 0.69 0.70 0.72 0.75 0.77 0.79 0.82 0.84 0.85 0.86 0.88 0.89 0.91 0.93 0.93 0.90 0.89
0.41 0.35 0.36 0.37 0.36 0.39 0.40 0.40 0.41 0.39 0.39 0.40 0.40 0.40 0.38 0.39 0.38 0.34 0.33 0.34 0.32 0.27 0.21 0.26 0.30 0.29 0.31 0.35 0.41 0.43 0.44 0.41 0.41 0.42 0.43 0.46 0.47 0.51 0.54 0.55 0.58 0.61 0.64 0.68 0.74 0.74 0.72 0.73 0.72 0.74 0.78 0.79 0.78 0.77 0.76 0.76 0.78 0.77 0.75 0.74 0.77 0.77 0.76 0.75 0.72 0.70 0.69 0.69 0.68 0.68 0.70 0.72 0.73 0.76 0.78 0.83 0.84 0.85 0.85 0.86 0.88 0.88 0.88 0.88 0.87 0.88
0.45 0.38 0.39 0.39 0.38 0.39 0.41 0.42 0.44 0.41 0.40 0.39 0.39 0.39 0.40 0.38 0.37 0.37 0.34 0.34 0.33 0.31 0.31 0.30 0.30 0.29 0.31 0.33 0.37 0.42 0.44 0.44 0.43 0.44 0.46 0.43 0.44 0.46 0.49 0.49 0.51 0.60 0.63 0.59 0.62 0.67 0.69 0.68 0.69 0.71 0.73 0.72 0.71 0.70 0.71 0.71 0.73 0.74 0.70 0.72 0.73 0.75 0.76 0.75 0.72 0.69 0.69 0.68 0.68 0.68 0.69 0.72 0.75 0.78 0.81 0.80 0.81 0.84 0.84 0.83 0.84 0.84 0.83 0.83 0.85 0.85
0.47 0.40 0.44 0.44 0.40 0.39 0.42 0.43 0.43 0.41 0.41 0.38 0.39 0.39 0.39 0.39 0.38 0.38 0.37 0.36 0.36 0.33 0.33 0.32 0.30 0.29 0.35 0.39 0.40 0.46 0.47 0.47 0.44 0.42 0.42 0.44 0.44 0.43 0.45 0.51 0.53 0.52 0.57 0.62 0.61 0.63 0.67 0.67 0.67 0.67 0.67 0.68 0.69 0.70 0.71 0.71 0.72 0.74 0.74 0.74 0.75 0.76 0.77 0.76 0.73 0.70 0.68 0.68 0.69 0.68 0.69 0.72 0.74 0.76 0.76 0.77 0.79 0.79 0.78 0.79 0.80 0.79 0.78 0.79 0.82 0.82
0.53 0.45 0.49 0.46 0.40 0.38 0.42 0.42 0.41 0.42 0.41 0.40 0.38 0.38 0.37 0.36 0.34 0.36 0.35 0.38 0.35 0.31 0.33 0.33 0.30 0.29 0.35 0.42 0.43 0.44 0.49 0.48 0.47 0.45 0.43 0.45 0.48 0.46 0.45 0.44 0.44 0.46 0.50 0.55 0.59 0.62 0.64 0.66 0.68 0.69 0.67 0.66 0.70 0.76 0.76 0.74 0.74 0.75 0.73 0.74 0.76 0.76 0.76 0.75 0.73 0.70 0.68 0.68 0.69 0.70 0.70 0.72 0.73 0.73 0.75 0.76 0.74 0.73 0.73 0.74 0.73 0.73 0.74 0.73 0.76 0.80
0.52 0.51 0.47 0.45 0.39 0.37 0.43 0.44 0.41 0.41 0.40 0.35 0.34 0.38 0.39 0.39 0.39 0.40 0.40 0.41 0.40 0.40 0.35 0.29 0.29 0.35 0.38 0.43 0.41 0.42 0.43 0.42 0.41 0.42 0.43 0.44 0.48 0.48 0.47 0.48 0.50 0.50 0.49 0.48 0.49 0.52 0.58 0.63 0.64 0.67 0.68 0.70 0.71 0.70 0.75 0.81 0.77 0.72 0.70 0.73 0.75 0.77 0.75 0.72 0.71 0.70 0.68 0.67 0.68 0.69 0.70 0.70 0.70 0.71 0.72 0.72 0.71 0.70 0.69 0.69 0.68 0.68 0.69 0.72 0.77 0.76
0.55 0.52 0.49 0.53 0.41 0.40 0.44 0.44 0.43 0.38 0.28 0.27 0.44 0.49 0.48 0.44 0.45 0.41 0.39 0.40 0.42 0.43 0.39 0.41 0.39 0.42 0.42 0.42 0.41 0.39 0.39 0.41 0.44 0.44 0.45 0.46 0.43 0.41 0.44 0.45 0.44 0.47 0.50 0.52 0.52 0.52 0.54 0.57 0.64 0.70 0.72 0.72 0.73 0.72 0.76 0.80 0.76 0.72 0.71 0.73 0.75 0.73 0.72 0.71 0.70 0.69 0.67 0.66 0.66 0.67 0.69 0.70 0.70 0.70 0.70 0.69 0.68 0.67 0.66 0.66 0.66 0.67 0.70 0.73 0.72 0.72
0.54 0.54 0.50 0.54 0.46 0.41 0.45 0.44 0.37 0.28 0.28 0.42 0.51 0.51 0.52 0.51 0.48 0.42 0.39 0.38 0.39 0.42 0.42 0.42 0.42 0.43 0.44 0.44 0.45 0.46 0.45 0.44 0.46 0.45 0.44 0.47 0.47 0.45 0.44 0.44 0.45 0.46 0.49 0.50 0.51 0.51 0.54 0.56 0.60 0.67 0.72 0.73 0.75 0.77 0.78 0.79 0.76 0.74 0.74 0.74 0.74 0.74 0.72 0.69 0.67 0.66 0.65 0.63 0.63 0.65 0.67 0.68 0.68 0.67 0.66 0.65 0.65 0.64 0.63 0.64 0.65 0.67 0.65 0.65 0.72 0.74
0.52 0.50 0.51 0.49 0.48 0.47 0.42 0.39 0.28 0.26 0.41 0.47 0.48 0.51 0.55 0.53 0.50 0.46 0.40 0.40 0.41 0.42 0.45 0.43 0.43 0.44 0.44 0.44 0.46 0.48 0.46 0.46 0.48 0.49 0.48 0.49 0.48 0.43 0.43 0.45 0.47 0.46 0.47 0.51 0.52 0.53 0.53 0.53 0.57 0.63 0.68 0.73 0.77 0.81 0.85 0.82 0.80 0.76 0.75 0.75 0.73 0.71 0.68 0.66 0.65 0.63 0.62 0.59 0.60 0.62 0.64 0.65 0.65 0.64 0.63 0.62 0.62 0.62 0.61 0.62 0.65 0.66 0.71 0.73 0.73 0.80
0.57 0.53 0.51 0.44 0.50 0.38 0.39 0.38 0.35 0.42 0.40 0.42 0.42 0.45 0.49 0.49 0.49 0.46 0.36 0.39 0.42 0.40 0.38 0.37 0.38 0.38 0.38 0.39 0.41 0.44 0.47 0.46 0.41 0.42 0.45 0.44 0.45 0.48 0.50 0.51 0.51 0.51 0.51 0.52 0.51 0.50 0.52 0.54 0.56 0.64 0.71 0.73 0.76 0.77 0.81 0.83 0.82 0.78 0.73 0.69 0.68 0.67 0.66 0.64 0.61 0.60 0.59 0.58 0.59 0.62 0.63 0.64 0.63 0.62 0.61 0.61 0.60 0.60 0.61 0.64 0.68 0.69 0.71 0.65 0.72 0.79
0.60 0.50 0.51 0.46 0.43 0.47 0.40 0.36 0.36 0.34 0.28 0.34 0.44 0.50 0.54 0.55 0.55 0.55 0.48 0.40 0.46 0.45 0.43 0.38 0.36 0.38 0.39 0.40 0.41 0.44 0.49 0.41 0.35 0.36 0.46 0.50 0.52 0.52 0.57 0.57 0.55 0.52 0.50 0.50 0.51 0.51 0.50 0.52 0.56 0.63 0.70 0.72 0.74 0.79 0.81 0.80 0.78 0.74 0.70 0.67 0.65 0.63 0.61 0.60 0.58 0.58 0.58 0.58 0.59 0.61 0.63 0.64 0.64 0.63 0.62 0.61 0.60 0.60 0.63 0.66 0.69 0.58 0.66 0.69 0.73 0.78
0.58 0.58 0.53 0.48 0.43 0.44 0.41 0.35 0.33 0.29 0.32 0.42 0.46 0.50 0.53 0.57 0.57 0.57 0.45 0.33 0.36 0.38 0.40 0.38 0.36 0.37 0.37 0.39 0.40 0.44 0.41 0.34 0.33 0.39 0.49 0.52 0.52 0.57 0.56 0.57 0.55 0.52 0.52 0.54 0.53 0.53 0.55 0.59 0.60 0.66 0.70 0.69 0.67 0.72 0.74 0.74 0.73 0.71 0.67 0.65 0.63 0.61 0.59 0.58 0.58 0.58 0.57 0.58 0.58 0.59 0.62 0.64 0.65 0.65 0.64 0.62 0.60 0.60 0.63 0.67 0.68 0.68 0.71 0.71 0.75 0.81
0.51 0.53 0.53 0.45 0.42 0.43 0.41 0.37 0.33 0.36 0.34 0.42 0.48 0.50 0.52 0.57 0.59 0.49 0.29 0.25 0.37 0.39 0.41 0.41 0.39 0.41 0.42 0.45 0.47 0.44 0.39 0.33 0.36 0.46 0.53 0.57 0.58 0.56 0.55 0.52 0.51 0.51 0.53 0.54 0.55 0.57 0.59 0.63 0.65 0.63 0.65 0.66 0.68 0.72 0.73 0.73 0.70 0.68 0.65 0.63 0.62 0.60 0.59 0.59 0.60 0.61 0.61 0.61 0.61 0.61 0.61 0.64 0.65 0.66 0.66 0.65 0.65 0.63 0.63 0.66 0.65 0.62 0.67 0.71 0.77 0.81
0.47 0.51 0.54 0.43 0.43 0.43 0.42 0.40 0.41 0.40 0.46 0.49 0.50 0.54 0.54 0.60 0.54 0.36 0.27 0.30 0.43 0.49 0.46 0.46 0.44 0.45 0.47 0.48 0.46 0.39 0.43 0.45 0.51 0.55 0.58 0.58 0.51 0.50 0.52 0.53 0.50 0.50 0.50 0.52 0.53 0.56 0.57 0.61 0.65 0.64 0.65 0.66 0.69 0.70 0.72 0.71 0.67 0.64 0.63 0.63 0.60 0.60 0.61 0.63 0.64 0.63 0.63 0.62 0.61 0.61 0.63 0.66 0.67 0.66 0.66 0.67 0.66 0.65 0.65 0.67 0.66 0.65 0.64 0.68 0.77 0.85
0.48 0.51 0.50 0.50 0.45 0.41 0.41 0.39 0.38 0.41 0.47 0.52 0.54 0.53 0.53 0.49 0.36 0.33 0.41 0.50 0.47 0.51 0.51 0.51 0.49 0.49 0.49 0.47 0.47 0.45 0.48 0.51 0.54 0.54 0.50 0.48 0.48 0.49 0.50 0.52 0.55 0.52 0.49 0.51 0.54 0.54 0.55 0.60 0.62 0.64 0.65 0.69 0.70 0.70 0.69 0.67 0.64 0.63 0.62 0.61 0.59 0.61 0.64 0.64 0.65 0.65 0.64 0.62 0.59 0.59 0.65 0.66 0.67 0.68 0.68 0.69 0.68 0.64 0.63 0.69 0.68 0.63 0.65 0.69 0.77 0.81
0.48 0.46 0.43 0.43 0.47 0.48 0.46 0.40 0.38 0.32 0.45 0.54 0.54 0.52 0.54 0.43 0.44 0.52 0.53 0.50 0.51 0.49 0.53 0.52 0.50 0.52 0.50 0.49 0.48 0.49 0.49 0.49 0.51 0.52 0.52 0.50 0.48 0.47 0.49 0.48 0.49 0.49 0.48 0.49 0.52 0.55 0.55 0.56 0.60 0.59 0.61 0.64 0.67 0.68 0.68 0.66 0.63 0.62 0.62 0.60 0.62 0.64 0.65 0.65 0.64 0.64 0.63 0.61 0.58 0.60 0.65 0.68 0.67 0.66 0.65 0.65 0.66 0.64 0.63 0.69 0.65 0.64 0.66 0.74 0.78 0.80
0.56 0.43 0.43 0.46 0.52 0.41 0.40 0.35 0.35 0.45 0.54 0.59 0.54 0.45 0.52 0.53 0.57 0.57 0.55 0.51 0.60 0.58 0.56 0.56 0.56 0.57 0.57 0.51 0.54 0.54 0.53 0.51 0.53 0.53 0.53 0.53 0.52 0.52 0.46 0.46 0.48 0.47 0.48 0.48 0.51 0.57 0.58 0.54 0.58 0.61 0.60 0.62 0.64 0.65 0.64 0.63 0.60 0.60 0.60 0.60 0.64 0.65 0.66 0.65 0.63 0.63 0.62 0.60 0.57 0.63 0.64 0.68 0.66 0.65 0.64 0.65 0.66 0.65 0.65 0.66 0.66 0.68 0.67 0.69 0.75 0.75
0.53 0.46 0.49 0.42 0.55 0.50 0.44 0.47 0.56 0.60 0.58 0.62 0.60 0.57 0.61 0.60 0.60 0.59 0.58 0.58 0.58 0.57 0.59 0.60 0.61 0.61 0.62 0.61 0.56 0.54 0.52 0.53 0.51 0.53 0.52 0.53 0.53 0.51 0.48 0.47 0.48 0.49 0.47 0.49 0.51 0.56 0.57 0.55 0.56 0.55 0.57 0.60 0.61 0.62 0.62 0.62 0.59 0.59 0.58 0.62 0.66 0.65 0.64 0.63 0.63 0.62 0.60 0.58 0.58 0.59 0.64 0.64 0.64 0.65 0.67 0.69 0.67 0.63 0.61 0.62 0.65 0.68 0.73 0.70 0.66 0.75
0.64 0.62 0.67 0.57 0.53 0.65 0.65 0.63 0.64 0.67 0.68 0.65 0.65 0.65 0.65 0.65 0.65 0.64 0.61 0.58 0.62 0.61 0.62 0.64 0.65 0.65 0.68 0.69 0.61 0.57 0.53 0.52 0.52 0.53 0.54 0.55 0.55 0.55 0.53 0.49 0.51 0.51 0.51 0.49 0.52 0.55 0.57 0.57 0.54 0.55 0.55 0.57 0.59 0.60 0.61 0.63 0.63 0.61 0.61 0.65 0.65 0.66 0.66 0.65 0.63 0.61 0.57 0.55 0.56 0.55 0.57 0.59 0.66 0.68 0.70 0.71 0.70 0.65 0.64 0.63 0.64 0.67 0.72 0.72 0.68 0.67
0.58 0.65 0.58 0.49 0.57 0.53 0.44 0.60 0.63 0.62 0.63 0.63 0.66 0.70 0.73 0.72 0.69 0.67 0.65 0.64 0.64 0.67 0.66 0.65 0.63 0.65 0.62 0.66 0.69 0.61 0.58 0.56 0.53 0.54 0.56 0.56 0.56 0.57 0.56 0.54 0.52 0.53 0.53 0.51 0.52 0.54 0.55 0.57 0.56 0.55 0.56 0.57 0.61 0.62 0.64 0.66 0.68 0.69 0.69 0.68 0.68 0.67 0.66 0.63 0.61 0.56 0.53 0.52 0.53 0.53 0.55 0.57 0.60 0.65 0.70 0.71 0.67 0.65 0.67 0.68 0.71 0.71 0.72 0.69 0.65 0.64
0.48 0.68 0.57 0.56 0.55 0.51 0.48 0.60 0.63 0.65 0.67 0.66 0.70 0.67 0.66 0.68 0.69 0.75 0.76 0.71 0.69 0.71 0.68 0.66 0.67 0.65 0.65 0.62 0.63 0.62 0.63 0.63 0.58 0.55 0.54 0.54 0.55 0.57 0.58 0.58 0.56 0.54 0.54 0.53 0.54 0.53 0.53 0.55 0.54 0.54 0.56 0.58 0.62 0.64 0.67 0.68 0.69 0.69 0.69 0.69 0.69 0.69 0.65 0.63 0.54 0.50 0.49 0.50 0.51 0.52 0.53 0.53 0.58 0.63 0.66 0.67 0.65 0.64 0.64 0.66 0.68 0.68 0.67 0.65 0.65 0.62
0.60 0.65 0.49 0.56 0.52 0.57 0.63 0.63 0.63 0.63 0.61 0.65 0.70 0.68 0.70 0.72 0.78 0.79 0.76 0.72 0.70 0.68 0.66 0.70 0.71 0.67 0.63 0.60 0.60 0.58 0.57 0.60 0.60 0.60 0.56 0.56 0.56 0.57 0.59 0.60 0.60 0.59 0.58 0.56 0.54 0.52 0.52 0.54 0.56 0.57 0.57 0.59 0.64 0.67 0.69 0.71 0.72 0.73 0.72 0.71 0.69 0.65 0.66 0.58 0.50 0.48 0.48 0.50 0.51 0.50 0.52 0.55 0.60 0.63 0.64 0.65 0.64 0.62 0.66 0.68 0.63 0.63 0.64 0.68 0.67 0.64
0.53 0.47 0.57 0.54 0.48 0.47 0.49 0.55 0.61 0.48 0.46 0.57 0.65 0.69 0.69 0.76 0.81 0.78 0.75 0.74 0.72 0.70 0.72 0.72 0.73 0.71 0.67 0.65 0.63 0.62 0.59 0.61 0.64 0.61 0.57 0.57 0.58 0.58 0.59 0.60 0.61 0.62 0.63 0.63 0.60 0.56 0.54 0.54 0.56 0.58 0.59 0.62 0.64 0.66 0.69 0.72 0.72 0.73 0.73 0.71 0.68 0.67 0.58 0.52 0.49 0.47 0.48 0.49 0.50 0.52 0.51 0.51 0.55 0.62 0.63 0.62 0.62 0.62 0.60 0.65 0.68 0.66 0.65 0.64 0.66 0.65
0.46 0.46 0.48 0.47 0.47 0.46 0.55 0.56 0.60 0.58 0.53 0.53 0.58 0.64 0.72 0.76 0.78 0.75 0.75 0.73 0.72 0.73 0.75 0.73 0.69 0.74 0.80 0.74 0.74 0.73 0.65 0.60 0.61 0.64 0.61 0.60 0.60 0.60 0.58 0.59 0.58 0.59 0.61 0.63 0.61 0.59 0.56 0.57 0.56 0.56 0.58 0.61 0.64 0.65 0.67 0.70 0.71 0.72 0.73 0.72 0.70 0.62 0.55 0.53 0.50 0.48 0.47 0.48 0.49 0.50 0.51 0.50 0.52 0.59 0.61 0.58 0.60 0.64 0.60 0.58 0.59 0.62 0.63 0.62 0.62 0.62
Wind_Speed
2 4 4 3 4 5 5 6 5 4 6 7 7 8 8 9 10 10 11 11 10 11 13 14 16 17 17 17 18 19 19 19 17 15 15 16 16 17 17 17 17 15 14 14 12 12 12 12 11 11 10 9 9 8 8 7 7 7 7 7 7 8 8 8 8 8 9 8 9 9 9 9 9 9 9 9 9 9 10 10 11 11 12 13 14 14
2 4 5 4 5 5 6 6 4 6 7 8 8 8 7 9 10 10 11 11 10 11 13 15 17 18 19 18 18 20 20 20 19 18 17 18 17 17 18 18 17 15 15 15 14 14 14 13 12 11 11 10 9 9 9 8 8 8 8 8 8 8 8 8 8 9 9 9 9 10 10 10 10 10 10 10 10 10 10 11 11 12 13 13 14 14
2 4 6 6 6 6 7 7 7 9 9 9 9 9 9 10 10 11 11 11 11 11 13 16 18 19 20 20 19 21 22 21 21 20 18 18 18 18 19 20 19 17 17 17 16 17 16 15 13 12 12 11 10 10 10 9 9 9 8 8 8 8 8 8 8 9 9 9 10 10 10 10 10 11 11 11 11 11 11 12 12 12 13 13 13 14
5 5 5 5 6 7 8 7 7 8 9 10 10 10 10 10 10 11 12 13 14 15 15 17 18 18 19 21 20 21 22 22 21 20 19 18 19 19 20 21 20 18 18 18 19 19 18 16 15 14 13 12 12 11 11 10 10 10 9 9 9 9 9 9 9 9 10 10 10 10 11 11 11 12 12 12 12 12 12 12 13 13 13 14 13 13
7 4 3 5 6 6 7 7 6 6 8 10 11 10 10 11 12 12 12 14 15 16 17 18 19 19 18 20 20 17 16 19 20 18 17 18 19 20 20 20 21 20 19 20 20 20 19 17 16 15 14 13 13 12 12 11 11 10 10 10 9 9 9 9 10 10 10 11 11 11 11 12 12 13 13 13 13 14 14 14 14 14 14 14 14 14
6 2 4 7 6 6 7 7 7 7 8 8 9 10 10 11 13 13 14 15 15 15 16 17 18 17 17 19 19 16 14 18 20 19 18 18 19 20 21 21 21 21 20 20 20 19 18 17 16 16 15 15 14 14 13 12 12 11 11 10 10 10 10 10 11 11 11 12 12 12 13 13 13 13 14 14 14 14 14 15 15 15 15 15 15 15
6 3 6 7 7 7 8 7 8 8 8 8 7 8 10 13 14 14 14 14 15 15 15 16 17 17 17 18 18 18 17 17 19 20 19 19 20 21 23 22 22 22 21 21 21 19 18 18 17 16 16 16 15 15 14 14 13 13 12 12 12 11 11 11 11 12 12 13 13 13 14 14 14 15 15 15 15 15 15 15 15 15 15 16 16 15
6 6 6 7 8 8 8 8 8 7 8 10 9 8 10 13 14 14 14 15 16 16 17 18 19 19 19 19 18 20 21 19 18 20 21 20 21 22 21 22 23 23 24 23 22 20 18 18 18 17 17 17 16 16 15 15 14 14 13 13 13 13 13 13 12 13 13 13 14 14 15 15 16 16 16 16 16 16 15 15 15 15 16 16 16 16
6 9 7 6 7 7 7 8 8 9 10 10 10 12 13 13 13 14 15 15 16 17 17 17 18 18 19 19 18 19 20 19 19 21 21 21 22 21 19 21 23 24 25 24 23 21 20 19 19 18 18 17 17 17 16 16 15 15 15 14 14 14 14 14 14 14 14 14 15 15 15 16 17 17 17 17 17 17 16 16 16 16 16 17 17 17
6 8 8 7 8 8 8 9 9 11 10 8 10 13 14 13 14 15 14 15 15 15 16 17 17 16 17 18 17 18 18 17 17 19 20 20 21 21 20 21 22 23 24 24 22 22 21 21 20 19 19 19 18 17 17 16 16 16 15 15 15 15 15 15 15 15 16 16 16 16 16 17 17 17 17 18 18 17 17 17 17 17 17 17 18 18
8 8 9 10 10 11 11 11 11 12 12 11 12 14 14 14 14 14 13 14 14 13 15 16 17 17 17 17 16 17 18 16 16 17 19 20 21 20 20 21 21 22 24 23 22 22 22 21 21 20 19 19 18 18 17 17 16 16 16 16 16 16 17 17 17 17 17 17 17 17 18 18 18 19 18 19 19 19 18 18 18 18 18 18 18 18
10 9 8 8 8 9 11 12 12 13 12 12 12 12 12 13 13 13 12 12 12 13 13 14 15 16 17 15 15 17 18 18 17 16 17 19 19 19 19 20 20 20 22 22 22 22 21 21 21 20 20 19 19 19 19 18 17 17 17 17 17 17 18 18 18 18 19 19 19 19 19 19 19 20 20 20 20 20 20 19 19 19 19 19 19 19
9 10 10 8 6 7 9 10 10 11 11 11 11 11 11 11 11 11 11 11 12 13 12 13 13 14 15 15 16 17 17 18 18 17 18 18 18 18 19 20 20 19 19 21 22 21 21 21 21 20 20 20 20 21 20 20 19 18 18 18 18 18 19 19 19 19 20 20 20 20 20 20 20 20 21 21 21 21 21 20 20 20 20 20 20 19
9 10 11 10 7 5 7 8 8 8 9 9 10 10 11 11 11 11 11 11 13 12 12 14 14 14 15 13 14 15 14 15 16 16 17 18 18 18 19 19 19 20 20 21 22 21 21 21 21 21 21 21 21 22 22 21 20 19 19 19 19 19 20 21 21 21 21 21 21 21 21 21 21 21 21 22 22 22 22 21 21 21 21 21 21 20
10 10 9 9 8 7 8 9 9 9 10 10 11 11 11 11 11 11 11 11 13 13 14 14 13 12 13 12 13 12 10 11 14 14 15 16 17 18 18 19 19 20 21 21 21 21 21 22 22 22 22 22 22 23 23 22 21 21 20 20 20 20 21 21 21 22 22 22 22 22 22 22 22 22 22 22 22 22 22 22 22 22 22 22 22 22
10 11 9 8 8 9 11 11 10 11 11 10 10 11 11 11 11 12 13 14 15 15 14 14 13 13 12 11 11 11 10 12 13 12 12 13 15 16 17 18 19 20 21 20 19 20 21 22 23 22 23 23 23 23 23 22 21 21 20 20 20 20 21 21 22 22 22 22 22 22 22 22 22 22 22 22 22 22 22 23 23 23 23 23 23 23
11 10 7 7 9 11 12 13 11 10 10 9 9 10 10 11 11 12 13 13 14 14 13 12 14 14 12 11 11 12 12 12 12 13 14 14 15 16 17 18 19 21 21 21 21 21 22 22 23 22 22 23 23 23 23 21 21 20 20 20 20 21 21 21 22 22 22 22 23 23 22 22 22 22 22 23 23 23 23 23 23 23 23 23 23 23
11 11 9 10 13 12 10 11 11 12 12 10 9 9 9 10 11 11 12 12 12 13 12 12 14 13 11 11 11 12 12 11 12 13 14 15 16 18 18 18 19 20 21 22 22 23 23 24 25 24 23 22 22 23 22 21 20 21 21 21 21 21 22 22 22 22 22 22 23 22 22 22 22 23 23 23 23 23 23 23 24 24 24 24 24 24
10 11 12 12 12 10 8 9 12 13 13 13 12 10 10 10 10 10 11 11 12 12 12 13 14 13 11 11 10 12 12 11 12 13 13 14 15 16 16 17 19 20 20 22 23 23 24 25 25 25 24 22 23 24 23 22 21 21 21 22 22 22 22 22 22 22 22 22 22 22 22 22 23 23 23 23 23 23 24 24 24 24 24 24 24 24
10 11 12 11 9 10 10 10 12 11 11 11 12 12 11 11 11 11 11 11 11 12 12 13 13 11 9 9 9 11 11 12 13 13 13 14 14 14 15 17 19 20 21 22 22 22 23 25 25 25 25 25 26 27 24 23 23 22 22 22 22 22 22 22 22 22 22 22 22 22 22 22 23 23 23 23 23 23 24 24 24 24 24 25 25 25
11 11 12 10 9 11 12 12 12 11 10 10 11 11 11 11 11 12 12 12 12 12 12 13 12 10 8 9 10 10 11 12 13 15 15 16 16 17 18 18 18 19 20 22 22 21 22 23 25 25 26 27 28 27 24 23 22 22 22 22 22 23 23 22 23 23 22 22 21 22 22 22 22 22 23 23 23 24 24 24 24 24 25 25 25 25
13 12 13 13 12 12 13 13 13 12 12 11 12 12 11 12 12 12 12 13 13 13 13 13 13 12 11 11 12 11 11 12 14 15 16 17 18 19 19 19 19 18 19 20 20 21 22 23 24 25 25 26 25 24 23 22 22 22 22 22 22 23 23 22 23 22 21 21 21 21 22 22 22 22 22 22 23 23 24 24 25 25 25 25 25 25
13 13 14 15 14 14 15 14 12 13 14 13 13 13 13 12 12 11 12 13 12 13 13 14 13 13 12 12 11 11 12 13 15 16 17 17 18 18 19 20 20 19 18 18 18 19 21 22 23 24 25 24 22 21 21 21 21 21 21 21 21 22 21 21 21 20 20 20 20 21 21 21 21 22 22 22 23 23 23 24 25 25 25 25 26 25
12 13 14 15 14 15 17 14 12 13 15 15 14 14 14 14 13 13 14 14 14 14 14 13 13 12 11 11 11 11 13 15 16 16 16 16 16 18 19 19 20 20 20 20 20 20 21 21 22 22 22 22 21 20 20 21 21 21 20 20 20 20 21 20 20 20 20 21 21 20 20 21 21 21 22 22 23 23 23 24 24 25 25 26 26 26
13 13 14 15 14 13 14 13 13 13 13 14 15 15 15 16 15 15 15 15 15 16 15 15 14 13 11 11 12 13 14 15 15 15 14 16 17 18 19 19 21 21 20 19 20 21 21 21 21 21 21 21 21 21 21 21 21 21 21 21 20 20 21 21 21 20 20 21 21 20 20 20 21 21 22 22 23 23 23 24 24 24 25 25 26 26
14 14 14 14 13 12 12 11 11 12 13 14 14 15 16 17 16 15 15 15 15 16 16 15 15 13 11 12 13 13 13 14 14 14 15 17 18 17 17 17 18 18 18 17 18 19 19 19 20 21 21 21 21 21 21 21 21 21 21 21 21 21 21 21 20 20 20 21 21 21 20 21 21 21 22 22 22 22 23 23 23 24 24 25 25 26
16 16 17 18 17 16 15 13 12 13 14 15 15 16 16 17 17 16 15 15 16 16 16 16 16 15 13 13 13 11 12 13 14 14 16 17 16 15 15 14 15 16 16 16 17 17 17 18 19 19 20 21 21 21 21 21 20 20 21 22 22 21 21 21 20 20 21 21 21 21 21 21 21 22 22 22 22 22 22 23 23 23 24 24 25 25
17 18 19 21 21 21 21 21 19 18 18 17 18 19 18 18 18 17 17 17 17 16 17 16 16 17 15 14 14 13 13 14 15 15 16 15 14 13 13 12 13 15 15 14 15 16 16 16 17 18 19 19 20 20 20 19 19 19 20 21 20 19 19 19 19 19 20 20 20 21 21 21 21 22 22 22 23 22 22 22 23 23 23 24 24 25
18 20 19 21 22 22 22 22 22 21 20 19 19 20 20 20 20 20 20 19 19 18 18 18 18 19 17 16 17 16 16 15 15 15 14 14 12 11 11 10 11 13 14 13 14 14 15 15 16 17 18 18 19 19 19 19 19 19 19 19 18 18 17 18 18 19 19 20 21 21 22 22 22 22 22 22 22 22 22 22 23 23 23 24 24 25
18 19 19 20 22 22 22 22 22 22 22 21 20 20 20 21 21 22 21 21 21 21 21 21 22 21 19 18 18 18 17 16 15 14 13 12 11 11 11 10 10 12 13 13 13 14 14 14 15 16 17 18 19 19 19 19 19 19 18 18 18 18 18 18 18 19 20 21 21 22 22 22 22 22 22 22 22 22 22 22 23 23 23 24 24 24
18 19 18 18 20 21 21 21 22 22 22 22 22 21 21 21 21 22 21 21 21 21 21 21 22 20 18 18 18 17 16 15 14 13 12 12 11 11 10 11 11 12 13 13 13 13 13 14 15 15 16 17 18 19 19 18 18 18 18 17 18 18 18 19 19 20 21 22 22 23 23 22 22 22 22 22 22 22 22 22 23 23 23 24 24 24
18 19 18 18 20 21 20 20 21 21 22 23 23 22 22 22 20 20 20 20 20 20 20 20 20 18 16 16 15 15 14 13 13 13 12 12 12 12 11 12 12 12 12 13 13 14 14 15 15 16 16 17 18 19 19 18 18 18 18 18 19 19 19 20 20 21 22 22 23 22 22 22 21 21 21 21 22 22 23 23 23 23 23 24 24 24
18 19 18 19 20 20 20 20 20 20 20 21 20 20 21 21 21 20 20 20 20 19 18 18 18 17 16 15 15 14 14 13 13 13 13 13 12 12 12 12 12 12 12 13 13 14 15 16 17 17 17 17 18 18 19 19 19 19 19 19 19 20 20 20 21 22 22 22 22 22 21 21 21 21 21 21 22 22 22 23 23 23 23 24 24 24
20 20 19 18 18 19 20 20 19 20 19 17 16 17 18 18 19 19 19 20 20 19 18 18 18 17 17 16 16 15 14 14 14 14 14 14 13 13 13 13 14 14 14 14 14 14 15 16 17 18 18 18 18 18 19 19 20 20 20 19 19 19 20 21 21 22 22 23 23 22 22 22 22 22 22 22 22 22 22 22 22 23 23 23 24 23
21 21 20 19 19 19 19 19 19 20 19 17 17 17 17 17 18 18 19 19 19 19 19 19 19 18 17 17 17 16 16 15 15 15 15 14 13 14 14 14 15 15 15 15 15 15 16 16 16 17 18 19 19 18 18 19 19 19 20 19 19 19 20 21 21 21 22 22 22 22 22 22 23 23 22 22 22 22 22 22 22 22 23 23 23 23
22 22 20 20 20 20 19 20 21 20 19 19 18 16 16 17 17 18 18 18 18 18 18 18 18 17 17 18 18 17 17 16 15 15 15 15 15 15 14 14 15 15 15 15 15 16 17 17 17 18 18 19 18 18 18 18 19 19 19 20 20 20 20 20 20 20 21 21 21 21 22 22 23 23 23 22 22 22 22 22 21 21 22 23 23 22
25 23 21 20 21 20 21 22 22 23 22 20 19 17 16 17 17 17 17 17 17 18 18 18 18 17 17 17 17 16 15 14 14 14 14 14 14 13 12 12 13 13 14 15 15 16 17 17 18 18 17 18 18 18 18 18 18 19 19 19 19 19 18 18 18 19 19 19 19 20 21 22 22 22 22 21 21 21 21 21 21 21 22 22 23 22
27 25 23 21 21 20 21 22 22 22 21 19 17 16 15 16 16 16 17 17 17 17 17 16 16 16 16 15 15 15 13 13 13 12 11 10 10 9 10 11 12 12 12 13 14 15 15 16 16 16 16 16 17 17 18 17 17 17 18 17 17 17 16 16 17 17 17 17 18 18 19 20 20 20 20 20 20 20 20 20 21 22 22 22 22 21
29 26 23 23 22 21 22 22 21 21 20 17 16 15 15 16 15 15 16 17 17 17 18 16 15 15 15 14 14 13 13 13 13 11 9 9 9 9 10 11 12 11 11 11 12 12 12 12 12 13 14 14 15 16 16 16 16 16 17 16 16 15 15 15 16 16 16 17 17 17 18 18 18 19 19 19 19 19 19 20 21 21 21 21 21 21
26 24 22 24 24 23 22 22 22 21 19 18 16 15 14 13 13 14 15 14 12 12 13 14 14 13 13 12 12 12 13 13 12 10 10 10 11 11 12 13 12 12 12 11 11 11 10 9 9 11 12 12 13 14 15 15 15 16 16 15 14 15 15 15 15 15 15 16 16 17 17 17 17 18 19 19 20 19 19 19 20 21 20 20 20 20
22 22 22 24 24 23 23 23 23 22 20 19 19 18 16 13 13 14 14 12 9 9 9 10 11 11 10 11 11 12 13 12 11 11 11 12 12 13 13 13 13 13 12 11 11 10 9 9 9 10 11 12 13 14 14 15 15 15 15 14 14 14 14 14 15 15 15 15 16 17 16 16 16 17 18 19 19 19 19 19 19 20 20 20 20 20
21 20 22 23 24 24 23 23 23 23 20 19 20 19 17 15 15 15 14 12 11 11 11 11 11 10 10 11 11 11 11 11 12 12 12 12 12 12 13 12 13 12 12 11 10 10 10 9 9 10 11 12 12 13 14 15 15 15 14 14 15 15 15 15 15 15 15 16 16 16 15 15 16 17 18 19 19 19 19 18 18 18 19 19 20 19
20 20 20 21 22 22 22 22 22 20 17 17 18 18 17 17 15 14 13 12 13 13 12 12 12 11 11 11 11 11 12 12 12 12 12 12 12 11 12 12 12 12 12 11 10 10 11 11 10 11 12 12 12 13 14 14 15 14 14 15 15 15 15 15 15 15 15 16 15 14 14 15 16 17 17 18 18 18 18 17 17 17 17 18 18 18
23 23 23 22 21 21 21 21 19 17 16 16 17 16 16 17 17 15 14 13 13 13 13 12 12 12 12 12 11 11 12 12 12 12 11 11 11 11 11 11 11 11 11 11 11 10 10 11 11 11 12 12 13 14 14 14 14 15 15 16 16 16 15 15 14 15 15 15 14 13 14 15 16 16 16 16 16 17 17 17 16 16 16 16 17 18
25 25 24 24 23 22 22 21 19 19 18 16 15 15 15 17 18 18 17 16 14 14 14 12 11 12 12 12 12 12 12 12 12 12 12 11 11 11 11 10 11 10 10 11 11 10 10 12 12 12 12 13 13 14 14 14 15 15 16 16 16 15 15 14 15 15 15 14 13 14 14 15 15 15 14 14 14 15 16 16 16 17 16 15 15 16
24 23 23 23 23 24 24 24 22 21 19 16 15 15 16 15 16 17 18 17 16 15 15 14 13 13 13 13 13 13 13 13 13 12 12 12 12 11 10 10 10 10 10 11 11 11 11 12 13 13 13 13 14 14 14 15 15 15 16 16 15 15 15 15 15 15 14 14 14 14 14 14 14 13 13 12 12 13 14 15 15 16 16 15 14 15
23 23 23 24 24 23 23 22 21 20 20 19 17 16 15 15 15 16 16 16 16 15 15 16 15 14 14 14 15 14 14 13 13 13 12 12 12 11 11 10 10 10 10 11 11 12 12 12 13 14 14 14 14 14 14 15 15 15 15 15 15 15 15 15 15 14 14 14 14 13 13 14 14 13 12 12 12 12 13 14 13 14 15 15 14 14
22 22 23 25 25 24 24 23 22 21 21 20 18 16 15 17 18 17 16 15 16 16 16 16 16 15 15 15 15 15 14 14 14 14 13 13 12 12 11 11 11 10 10 11 11 12 12 13 14 14 14 14 14 14 14 14 14 15 15 14 14 15 15 15 14 13 13 13 13 13 12 13 13 13 13 12 11 12 12 13 13 14 14 15 15 15
23 23 24 24 25 25 25 25 25 24 22 20 18 17 16 17 18 18 17 16 16 16 16 16 16 16 16 16 15 15 15 15 15 15 14 14 13 12 12 12 12 11 11 11 11 12 12 13 13 14 14 14 14 13 14 14 14 15 14 14 14 15 15 14 13 13 13 12 12 12 12 12 12 12 12 12 11 11 12 12 12 13 14 14 14 14
25 24 24 24 25 25 24 23 22 23 23 22 20 19 18 17 17 16 16 16 15 15 15 15 14 15 15 14 14 14 14 14 14 15 15 14 13 13 12 12 12 12 11 11 11 12 12 12 13 14 14 14 13 13 14 14 14 15 14 14 14 14 13 13 13 13 13 13 12 12 12 11 11 11 12 12 11 11 11 11 10 10 12 13 13 13
26 25 24 24 26 26 26 24 23 23 24 24 22 21 21 20 19 18 16 16 16 17 16 15 14 14 14 13 13 13 13 13 14 15 15 14 14 13 13 13 12 12 12 11 11 12 12 12 12 13 14 13 13 13 13 14 14 15 14 14 14 13 13 13 13 13 13 13 12 11 11 10 11 10 10 11 11 11 10 10 10 9 10 11 12 12
Wind_Direction
230 241 230 245 254 244 286 276 251 283 277 274 279 275 267 254 257 261 257 251 246 252 254 254 256 257 256 249 239 235 234 235 235 237 237 237 237 235 236 237 235 234 234 237 241 243 241 240 240 239 241 242 244 249 248 249 247 245 246 244 244 246 246 247 246 245 244 243 243 243 245 247 249 249 252 255 255 253 252 253 253 251 249 246 245 245
246 250 247 275 299 268 283 293 281 283 277 271 267 272 277 264 261 263 258 249 246 257 262 265 266 262 259 257 246 235 233 236 235 236 236 233 233 233 234 237 236 234 238 241 244 244 242 241 239 238 241 241 243 247 248 249 249 248 248 247 246 246 248 249 249 249 249 249 248 247 249 250 251 251 254 257 256 255 254 255 256 254 252 250 248 249
243 266 271 285 305 280 276 290 286 279 274 270 264 265 270 268 267 266 259 246 246 263 269 267 266 262 260 258 251 241 239 239 237 236 235 230 231 233 235 237 239 239 240 243 243 242 242 240 239 240 241 242 243 245 248 249 248 248 249 250 250 249 250 251 250 250 250 252 252 251 252 253 254 254 255 257 257 257 257 257 258 257 256 253 251 250
278 279 287 300 300 279 274 280 280 275 267 262 263 265 266 268 269 266 263 259 262 273 278 275 272 267 263 257 252 249 242 236 233 233 231 229 232 235 235 236 242 245 243 243 242 241 240 239 238 240 240 241 243 244 246 248 248 250 250 250 251 252 253 255 254 254 253 254 255 255 257 257 257 256 257 258 258 259 260 258 258 257 257 255 252 250
295 275 278 302 298 283 275 266 257 266 268 258 255 260 267 272 274 274 274 272 271 273 274 275 272 268 264 258 252 249 237 227 228 230 232 235 237 237 236 237 242 246 246 245 242 238 236 236 237 239 240 240 242 243 244 246 249 251 251 251 251 253 256 258 258 258 258 257 257 258 259 260 260 259 259 260 260 261 261 260 259 257 255 254 253 252
301 304 285 289 288 277 274 270 266 278 286 272 259 265 277 279 277 276 274 275 275 271 270 272 271 268 264 259 252 244 232 227 233 236 238 242 243 241 242 243 243 243 244 243 238 235 234 233 235 237 239 240 241 242 243 245 247 249 250 252 254 257 259 261 261 262 262 261 260 259 260 261 262 262 261 261 261 261 261 260 259 258 255 253 253 254
283 295 288 283 287 281 273 277 279 282 288 283 275 275 281 280 277 278 274 272 272 269 269 269 270 271 267 264 258 250 242 236 239 242 240 245 249 246 245 246 246 242 239 238 238 237 236 234 234 236 238 240 241 242 242 243 245 246 249 251 255 259 262 264 265 264 264 263 262 261 261 262 263 263 263 263 262 262 262 260 259 258 256 254 254 254
269 271 278 273 279 283 277 276 273 274 278 281 285 287 291 288 283 286 284 276 274 274 272 265 264 268 266 264 261 256 249 239 237 241 240 245 247 245 247 247 245 243 240 238 239 239 238 235 235 236 238 239 241 242 242 243 244 246 248 252 256 259 262 265 266 266 265 265 264 264 263 263 264 264 264 264 264 263 262 262 260 259 258 256 254 254
278 272 288 290 274 270 274 281 281 285 282 275 279 288 298 298 287 286 284 278 278 277 273 267 264 266 264 262 258 257 256 244 235 238 242 243 240 242 249 246 242 243 241 238 237 237 238 237 237 236 237 238 240 241 242 243 245 247 250 254 258 261 263 266 266 267 267 267 267 266 265 264 264 264 264 264 264 263 262 262 261 260 259 258 256 254
291 282 294 297 279 271 283 295 291 290 291 283 283 288 292 293 285 282 280 277 277 273 271 270 266 264 265 264 258 258 260 252 243 244 245 244 242 245 248 243 241 242 240 238 237 237 237 237 237 238 237 235 237 239 241 243 246 248 251 254 257 260 263 265 266 267 267 268 268 267 266 265 264 263 263 263 263 262 262 262 261 261 261 259 256 255
277 278 282 281 275 274 284 292 285 282 287 288 289 290 288 285 282 280 277 276 275 271 270 270 267 266 266 265 260 257 255 253 251 247 245 245 247 249 248 244 243 243 241 240 239 236 233 236 238 237 235 234 236 238 240 243 245 248 251 253 255 258 261 263 265 266 267 267 268 267 266 266 265 263 262 262 262 262 262 262 261 261 261 260 257 256
274 272 277 280 275 276 281 284 281 277 277 280 284 289 289 287 284 282 278 275 273 273 273 274 274 272 267 265 267 261 251 252 254 248 248 249 246 247 247 245 245 244 240 237 238 235 231 234 236 234 234 236 239 240 240 244 246 248 250 252 254 257 260 263 264 266 267 267 267 267 267 266 266 264 263 262 262 261 261 262 262 261 261 260 258 256
284 277 278 276 275 280 284 286 284 277 272 273 276 282 285 286 286 283 280 276 273 272 278 287 288 277 267 269 276 268 252 251 254 249 250 249 245 244 244 243 244 243 237 236 238 234 231 235 236 234 236 238 242 243 242 244 246 248 250 251 254 256 259 263 264 265 266 266 267 267 268 268 267 266 264 263 262 262 262 261 261 261 260 260 259 257
288 280 269 261 267 284 288 291 289 285 282 277 277 281 282 284 287 284 282 283 278 274 281 290 289 279 269 268 277 274 260 252 250 249 250 245 244 245 243 242 244 242 239 240 240 236 234 237 236 236 238 239 242 245 245 246 247 249 250 251 254 256 258 262 264 265 266 266 267 267 268 268 267 267 266 264 263 262 262 261 261 261 260 259 258 258
292 291 275 262 269 278 283 288 290 291 289 282 280 281 278 277 279 280 284 288 288 285 281 276 274 279 276 267 269 273 272 263 252 251 255 247 242 245 244 244 245 244 242 241 239 237 236 237 237 239 240 241 244 246 247 248 248 249 251 252 255 257 259 262 264 265 266 266 267 268 269 269 268 268 267 266 265 263 262 262 261 260 259 259 259 258
286 291 287 274 272 270 274 283 288 287 284 282 282 278 275 275 276 279 282 286 290 290 282 270 267 275 274 263 263 266 268 268 260 254 256 249 243 246 250 249 246 244 242 240 239 238 238 236 237 240 242 245 248 248 247 247 247 249 252 254 256 259 261 263 264 265 266 266 267 269 269 268 268 268 268 266 265 264 263 262 261 260 259 259 259 258
286 289 289 278 275 270 272 280 281 277 280 285 284 280 279 278 278 282 284 284 286 285 280 273 273 276 270 261 269 273 265 261 260 255 255 255 253 254 256 253 249 246 244 242 240 240 240 237 237 241 245 247 248 247 245 244 247 251 254 256 257 259 261 263 264 265 265 266 267 268 268 268 268 268 267 266 265 264 263 262 261 261 260 259 258 258
287 285 282 277 278 275 273 280 279 271 274 279 280 286 289 281 276 280 285 288 286 282 279 275 275 278 274 269 275 276 266 258 260 257 255 259 259 257 256 254 251 248 244 241 240 241 241 240 240 243 246 246 245 244 243 244 248 252 255 257 257 259 261 262 263 264 265 266 267 268 267 268 268 268 266 265 264 263 263 262 261 260 259 259 258 258
288 286 286 281 277 279 276 280 283 275 266 266 273 283 287 283 279 275 280 289 288 284 283 280 280 281 277 274 274 272 267 265 266 261 261 267 266 260 256 254 253 249 243 242 242 242 242 243 243 242 243 244 244 244 245 246 250 254 256 258 258 259 261 262 263 264 264 266 267 267 267 267 268 267 266 264 263 262 262 261 261 259 258 258 257 258
283 284 288 282 272 279 280 278 284 281 264 260 269 275 274 276 279 275 276 282 285 285 284 282 283 280 273 272 271 271 271 268 268 268 271 276 275 269 266 265 261 252 245 245 245 243 243 244 244 242 243 244 244 246 248 250 253 255 256 257 258 259 260 262 263 263 264 266 266 266 267 267 268 267 266 264 262 261 260 260 260 259 259 258 257 257
279 280 283 281 274 278 280 277 281 282 272 265 267 271 272 272 277 280 276 274 278 283 284 282 279 273 269 272 272 273 272 268 268 271 273 273 272 271 270 270 267 257 250 248 246 244 246 246 245 244 245 245 244 247 250 251 254 255 254 255 257 259 260 261 262 262 263 264 265 266 267 267 268 268 266 265 263 261 260 260 259 259 259 258 257 257
275 278 277 278 277 275 277 277 276 277 276 272 268 269 272 273 278 282 277 274 277 279 281 281 279 274 270 271 272 271 273 273 274 275 275 274 273 273 272 269 268 264 256 252 248 245 246 247 245 244 245 245 245 246 249 251 253 254 255 256 258 260 260 260 261 262 262 263 265 267 267 268 268 268 267 266 264 262 260 259 258 258 258 258 257 257
274 277 273 274 274 274 279 278 272 273 276 274 269 269 272 271 272 274 274 277 279 279 281 280 278 276 270 269 272 275 278 282 282 282 281 278 277 277 277 272 268 264 258 254 250 247 246 246 245 244 244 245 246 247 248 251 252 253 255 257 258 259 259 261 263 263 264 265 266 267 268 268 268 268 268 267 265 264 262 261 259 258 258 257 257 257
271 273 273 276 277 276 278 274 268 271 272 271 270 270 271 269 268 269 273 279 279 278 280 276 273 273 269 268 275 278 282 284 284 283 281 280 281 280 279 276 269 262 256 253 251 249 249 248 246 246 245 246 247 248 250 252 253 254 254 255 255 257 259 261 263 264 264 265 266 267 268 269 269 270 269 268 266 265 264 262 260 259 258 257 256 256
266 267 269 276 279 277 275 269 266 268 270 271 272 271 269 268 269 270 273 276 274 275 276 274 274 274 266 269 277 279 283 286 285 284 284 285 286 284 282 282 275 264 253 249 250 249 248 246 245 246 247 248 249 250 250 252 255 255 253 252 254 256 258 258 259 261 264 266 266 267 267 268 270 271 270 269 267 266 264 262 260 259 257 256 256 255
264 266 267 270 273 272 273 273 274 277 276 274 272 271 270 268 268 270 273 273 271 274 274 272 274 273 265 272 281 283 289 292 287 286 288 289 288 288 285 279 273 263 251 247 248 245 244 245 244 243 246 247 249 250 251 253 254 255 253 252 253 255 257 257 258 261 264 265 266 267 268 269 271 272 272 270 269 267 264 262 260 258 257 256 256 255
263 264 265 266 268 269 272 277 283 286 283 277 274 273 272 270 269 270 270 269 271 275 274 270 272 272 269 276 282 283 288 292 289 289 291 290 289 290 286 274 267 265 257 250 245 241 241 244 243 242 243 245 247 249 251 252 253 252 252 252 252 252 254 256 258 261 263 264 265 267 269 271 272 273 273 272 269 267 265 263 261 259 257 257 256 256
264 263 263 264 267 269 270 273 277 279 278 276 276 274 272 271 269 267 266 268 271 274 273 271 272 273 274 278 281 283 286 288 289 291 293 293 291 290 286 276 270 268 260 250 242 238 239 241 242 243 243 244 247 248 249 251 250 250 252 251 248 246 249 253 256 260 263 265 267 269 271 272 273 273 273 272 269 267 265 264 262 260 259 258 257 257
264 266 265 266 268 269 270 271 273 274 274 274 273 272 272 271 268 266 266 267 268 270 272 273 273 272 274 277 279 285 288 288 289 290 290 290 286 282 277 271 269 267 258 246 239 237 238 240 242 243 242 243 246 248 250 250 249 250 251 248 243 242 246 251 256 260 264 266 268 270 271 272 272 272 271 270 268 266 266 265 264 263 262 261 260 258
262 266 267 269 272 272 271 271 271 272 273 273 272 270 269 269 267 267 267 267 267 268 271 272 271 269 271 275 278 282 284 285 287 288 287 285 280 275 270 263 261 261 256 248 243 240 239 239 241 243 243 244 245 247 248 249 249 251 250 245 241 243 249 253 258 262 264 267 269 271 272 272 272 272 269 267 266 265 265 265 264 264 265 264 261 259
260 265 268 270 273 273 272 272 271 270 271 272 271 270 268 266 266 266 267 267 267 268 270 270 270 269 269 272 277 280 280 279 280 281 282 284 284 281 275 268 263 261 258 254 249 245 242 243 244 244 244 245 246 247 248 248 248 249 249 246 242 244 251 256 259 263 266 268 270 271 272 272 271 270 268 266 265 265 265 265 265 266 267 265 262 260
260 264 267 268 271 273 273 274 274 273 272 271 270 270 268 266 267 267 267 265 265 267 268 268 268 268 268 270 274 276 274 273 275 279 281 281 280 278 275 273 270 268 264 260 256 251 247 246 248 248 247 246 246 247 249 249 248 249 250 250 246 247 253 257 261 265 268 269 270 270 271 271 269 267 267 266 265 265 265 267 268 268 268 265 262 260
260 263 264 265 268 270 270 273 277 279 276 272 270 269 268 268 269 268 266 264 263 264 265 266 266 267 267 268 268 267 265 268 274 280 283 283 281 278 276 274 273 271 269 265 263 260 254 251 251 250 249 249 249 249 249 249 249 251 252 252 250 252 256 259 263 267 269 270 270 269 269 268 267 266 266 266 266 266 266 267 268 268 268 266 263 260
259 261 263 264 267 270 271 275 278 276 273 272 274 272 271 271 272 271 269 266 263 261 262 264 266 265 264 264 265 265 265 269 274 278 280 280 279 278 276 274 274 272 270 268 267 266 263 259 255 250 248 249 252 253 251 250 252 253 253 252 252 254 257 260 263 266 268 269 269 268 268 266 266 265 265 265 266 266 267 267 268 268 268 265 263 259
257 259 260 261 264 268 272 274 273 270 270 273 276 273 269 271 273 274 274 271 266 262 261 261 263 263 263 263 263 264 265 269 273 276 277 277 277 278 277 274 274 274 271 269 268 267 266 264 257 251 248 249 253 253 251 252 254 254 252 252 254 257 260 263 265 267 268 269 268 268 267 266 265 265 265 266 266 266 267 267 267 268 266 264 261 258
255 257 258 260 263 266 267 264 265 271 276 276 275 272 270 271 272 274 274 271 268 265 263 262 263 263 263 261 260 260 263 267 271 273 275 276 274 275 276 276 276 276 273 271 270 270 269 267 261 254 250 250 251 252 251 252 253 253 252 252 256 260 262 264 267 269 270 270 268 267 267 265 265 265 266 266 266 266 267 267 267 267 264 262 259 256
253 254 255 258 260 260 261 261 265 273 277 275 273 271 270 271 271 272 274 272 268 266 264 262 262 262 262 260 257 257 260 264 269 273 278 281 277 270 271 275 278 278 275 274 274 273 272 269 264 257 251 249 249 248 249 251 252 253 253 254 257 260 262 264 267 270 271 271 268 267 266 265 265 265 266 266 265 266 267 267 266 265 262 260 257 254
250 251 252 254 255 255 258 263 266 270 271 271 271 270 269 272 273 273 275 275 270 265 261 259 259 260 261 260 256 255 256 262 268 271 277 287 286 275 271 274 278 281 279 277 277 275 272 268 263 256 250 247 246 246 247 250 251 252 252 252 255 258 260 263 267 270 272 272 271 269 267 265 265 265 265 265 265 266 267 267 266 264 261 260 257 254
248 249 249 250 252 252 255 259 261 264 267 270 272 271 268 271 273 273 275 277 273 262 255 253 255 257 258 258 255 251 251 259 265 266 271 282 285 281 278 278 278 279 278 278 279 277 272 267 261 254 248 244 243 243 244 246 247 249 250 251 255 258 260 263 266 270 272 274 274 271 268 264 263 264 264 264 266 267 267 267 266 264 262 259 256 253
247 248 246 246 248 249 252 256 259 262 265 267 270 272 270 268 270 269 271 278 280 265 252 250 254 256 256 256 253 250 252 257 261 262 269 278 283 284 283 282 280 279 277 277 278 277 271 265 258 252 247 244 242 241 242 244 247 249 250 251 254 258 261 263 267 272 275 276 275 272 269 265 263 263 263 264 267 268 266 265 265 263 261 257 253 250
249 247 245 245 247 247 248 253 257 262 265 264 265 268 267 264 263 261 262 271 280 273 261 257 257 256 255 255 255 254 253 253 256 260 266 273 279 283 282 279 278 279 277 275 274 272 268 261 254 251 248 245 244 245 244 246 249 251 251 251 253 257 261 264 268 273 277 278 277 273 268 264 263 263 263 264 267 267 265 264 264 262 258 253 250 248
250 248 246 245 246 246 247 250 255 260 263 262 263 263 258 253 255 258 259 265 269 265 261 261 259 257 255 255 257 259 256 253 255 261 267 272 277 283 284 279 275 275 275 272 270 269 266 258 252 255 255 249 247 249 248 248 251 252 252 252 255 259 263 266 269 273 277 280 280 275 267 263 264 265 265 266 267 266 263 262 262 260 255 250 247 246
248 249 249 245 245 246 245 244 249 256 259 259 260 259 251 248 253 260 262 265 267 263 258 257 257 256 254 254 258 261 260 256 255 259 266 272 277 283 286 282 275 273 272 270 268 267 265 260 255 256 258 255 251 252 252 251 251 253 254 255 256 260 264 267 269 273 277 280 281 275 267 265 266 267 267 267 267 265 261 258 258 256 252 248 245 241
246 247 250 250 249 247 241 238 244 256 263 262 258 255 252 250 252 256 261 263 264 264 261 258 256 256 256 256 259 261 260 256 255 257 261 268 274 280 284 283 277 272 269 268 268 265 262 261 261 259 259 258 255 253 254 253 252 253 255 257 258 260 263 266 269 272 276 279 279 275 270 268 268 268 268 268 267 264 259 255 253 251 247 245 242 238
246 246 249 252 250 245 243 245 252 257 262 264 261 259 260 257 251 252 257 260 259 259 259 259 257 257 259 259 258 261 263 260 257 257 258 263 272 278 281 282 278 273 270 269 268 265 261 263 265 264 262 261 259 256 254 252 252 254 256 258 259 259 260 264 268 271 274 276 278 277 273 270 268 267 266 267 267 264 257 253 251 246 241 241 240 236
249 247 249 251 249 247 248 251 252 250 253 261 263 262 264 264 257 252 253 255 255 254 253 253 253 254 258 261 261 263 264 260 256 256 257 262 269 273 277 280 278 274 273 271 268 266 265 264 266 266 265 263 261 259 256 253 253 254 255 256 257 258 260 263 266 269 271 274 278 278 273 269 267 265 263 265 267 264 258 254 250 241 235 236 238 236
251 250 249 248 248 247 247 247 246 247 252 258 261 260 263 270 269 260 254 253 254 253 253 254 255 254 254 257 261 265 265 261 257 255 255 260 266 268 271 275 275 273 273 273 271 269 267 265 266 267 266 263 261 260 259 256 254 255 256 256 257 259 261 262 263 267 270 272 276 276 272 269 266 264 262 264 266 263 256 249 241 233 230 233 236 236
253 253 252 249 246 246 246 245 247 252 254 254 254 254 259 268 270 264 258 256 256 257 257 256 255 255 254 255 258 263 265 262 258 255 255 258 264 266 267 270 272 271 272 275 277 276 272 268 267 268 267 264 261 261 261 258 258 259 258 256 257 259 260 260 262 266 268 269 272 274 272 270 266 262 262 263 262 259 255 246 235 230 234 238 239 237
252 254 253 250 247 246 247 247 248 252 253 250 249 251 253 257 260 258 257 258 259 261 262 258 256 256 257 257 259 262 264 261 256 254 255 257 260 264 265 267 269 270 270 273 278 281 279 274 270 270 270 265 261 260 262 261 261 262 259 256 256 258 257 256 259 262 264 267 271 273 274 271 265 260 260 261 256 253 256 253 241 233 237 241 241 239
250 251 251 250 247 245 246 246 245 248 249 248 249 252 252 251 254 257 257 256 258 262 263 261 260 259 258 259 263 265 264 260 255 253 253 253 257 263 267 266 267 269 269 271 276 281 282 279 275 274 272 267 261 259 261 263 263 262 259 256 256 256 254 254 256 260 263 266 268 270 272 270 265 259 257 258 255 248 249 255 250 240 237 237 237 236
249 248 247 249 248 246 247 249 248 248 248 248 249 250 249 250 254 259 258 255 256 259 259 258 258 257 255 258 263 265 267 265 259 255 254 252 254 261 267 269 268 268 269 270 273 277 280 281 281 278 274 269 265 262 263 264 263 262 260 257 254 253 252 254 256 258 261 263 263 266 268 268 264 259 254 255 256 249 243 246 249 246 242 236 231 229